Find Starlink 32723

NORAD ID: 62449 Int'l Des: 2024-251 Owner: SPXS Country: US Constellation: starlink operational
LEOCIRCULAR

Live-Position

3D-Globus wird geladen...

Über Starlink 32723

Beschreibung wird geladen...

Nächste Überflüge

Passes for default location (London). Set your location on the main map for personalized predictions.

Höhenverlauf

Loading altitude history...

Zweizeiliger Elementsatz

1 62449U 24251T 26122.14270450 .00029381 00000-0 99979-3 0 9994
2 62449 53.1596 86.9201 0000919 105.3480 254.7622 15.30213684 75971
Epoch: 2. Mai 2026 • Age: 20 hours

Aktueller Status

Höhe 486.5 km
Geschwindigkeit 7.62 km/s
Subsatellitenpunkt -35.03°S, 85.45°E
Startdatum 29. Dez. 2024
Alter 1.3 years
Typ internet

Technische Details

Klassifizierung Payload
Masse 730.00 kg
Trockenmasse 700.00 kg
Gesamtmasse 730.00 kg
Länge 0.30 m
Durchmesser 4.10 m
Spannweite 29.00 m
Form Box + pan
Hersteller SPXS
Bus-Typ Starlink V2M
Phasenstatus In Orbit
Besitzer/Staat SPXS/US

Most Searched